SCP
0 0 0 0 0 0 0 0 0 0 0 -0 0 0 -0 -0 -0 0 -0 0 0 0 0 0 0 0 0 0 -0 0 0 0 0 0 0 0 0 0 0 -0 -0 -0 -0 0 0
0 0 0 0 0 0 0 0 0 0 0 0 -0 0 0 -0 -0 -0 0 0 0 0 0 0 0 0 0 0 0 0 0 0 0 0 0 0 0 0 0 0 -0 0 0 0 0
0 0 0 0 0 0 0 0 0 0 0 0 0 0 0 0 0 0 0 0 0 0 0 0 -0 0 -0 0 0 0 -0 -0 0 -0 0 0 0 0 -0 0 -0 0 0 0 0
0 0 0 0 0 0 0 0 0 0 0 0 0 0 0 -0 -0 0 0 0 0 0 0 0 0 0 0 -0 0 -0 -0 -0 -0 -0 0 0 -0 -0 -0 -0 0 -0 0 0 0
0 0 0 0 0 0 0 0 0 0 0 0 0 0 0 0 -0 0 0 0 0 0 0 0 0 0 0 0 0 -0 -0 0 -0 -0 -0 -0 -0 -0 0 0 -0 0 0 0 -0
0 0 0 0 0 0 0 0 0 0 0 0 0 0 0 -0 0 0 0 0 0 0 0 0 0 0 0 0 -0 -0 -0 -0 0 -0 0 -0 -0 -0 0 0 0 0 -0 -0 -0
0 0 0 0 0 0 0 0 0 0 0 0 0 0 -0 -0 0 0 0 0 0 0 0 0 0 -0 0 0 0 0 0 -0 -0 0 -0 0 -0 0 0 0 0 -0 -0 -0 -0
0 0 0 0 0 0 0 0 0 0 0 0 0 0 -0 0 0 0 0 0 0 0 0 -0 0 -0 0 0 0 -0 0 0 -0 -0 -0 -0 -0 0 0 0 0 0 0 0 0
0 0 0 0 0 0 0 0 0 0 0 0 0 -0 -0 0 0 0 0 0 0 0 0 0 0 0 0 -0 0 0 -0 -0 0 0 0 0 0 0 -0 0 0 0 0 0 0
0 0 0 0 0 0 0 0 0 0 0 0 0 -0 -0 -0 0 0 0 0 0 0 0 0 0 0 0 0 0 -0 -0 -0 0 0 0 -0 -0 -0 0 0 0 0 0 0 0
0 0 0 0 0 0 0 0 0 0 0 0 -0 -0 -0 0 0 -0 0 0 -0 -0 -0 -0 -0 0 -0 -0 -0 -0 -0 -0 -0 -0 0 0 -0 0 0 0 0 0 0 0 0
0 0 0 0 0 0 0 0 0 0 0 -0 0 -0 0 -0 -0 0 0 0 0 0 -0 0 -0 0 0 0 -0 -0 -0 0 0 -0 -0 -0 -0 0 -0 0 0 0 0 0 0
0 0 0 0 0 0 0 0 0 0 0 -0 -0 -0 -0 -0 0 0 0 0 0 0 0 0 0 -0 -0 -0 0 0 0 0 0 -0 -0 -0 -0 0 0 0 0 0 0 0 0
0 0 0 0 0 0 0 0 0 0 0 0 -0 -0 -0 0 -0 0 -0 0 0 0 0 0 -0 -0 -0 -0 0 0 0 0 0 0 0 -0 0 0 0 0 0 0 0 0 0
0 0 -0 -0 0 0 0 0 0 0 0 0 0 0 0 0 0 -0 -0 0 0 0 0 0 0 0 0 0 0 0 0 0 0 0 0 0 -0 -0 0 0 0 0 0 0 0
0 -0 -0 0 0 0 0 0 0 0 0 0 0 0 0 0 0 -0 0 0 0 0 0 0 0 0 0 0 0 -0 0 0 0 0 0 0 0 0 0 0 0 0 0 0 0
0 -0 0 0 0 -0 0 0 0 0 0 0 0 0 0 0 0 0 0 0 0 0 0 0 0 0 0 0 0 -0 0 0 0 0 0 0 0 0 -0 0 0 0 0 0 0
-0 0 0 0 0 0 0 0 0 0 0 0 0 0 0 0 0 -0 0 0 0 0 0 0 0 0 0 0 0 -0 0 -0 -0 0 0 0 0 0 0 0 0 0 0 0 0
-0 0 0 0 0 0 0 0 0 0 0 0 0 0 0 0 0 0 0 0 0 0 0 0 0 0 0 0 0 -0 -0 0 0 0 0 -0 0 0 -0 0 0 -0 0 0 0
0 0 0 0 0 0 0 0 0 0 0 0 0 0 0 0 0 0 0 0 0 0 0 0 0 0 0 0 0 -0 -0 -0 0 0 0 -0 0 0 0 0 0 0 0 0 0
0 0 0 0 0 0 0 0 0 0 0 0 0 0 0 0 0 0 0 0 0 0 0 0 0 0 0 0 0 0 -0 -0 0 0 0 0 0 0 0 0 0 0 0 0 0
0 0 0 0 0 0 0 0 0 0 0 0 0 0 0 0 0 0 0 0 0 0 0 0 0 0 0 0 0 0 0 -0 -0 -0 -0 0 0 -0 0 0 0 0 0 0 0
0 0 0 0 0 0 0 0 0 0 0 0 0 0 0 0 0 0 0 0 0 0 0 0 0 0 0 0 0 0 -0 -0 -0 0 0 0 -0 -0 -0 0 0 0 0 0 0
0 0 0 0 0 0 0 0 0 0 0 0 0 0 0 0 0 0 0 0 0 0 0 0 0 0 0 0 0 0 -0 -0 -0 -0 0 0 0 -0 -0 -0 0 0 0 0 0
0 0 0 0 0 0 0 0 0 0 0 0 0 0 0 0 0 0 0 0 0 0 0 0 0 0 0 0 0 0 0 0 -0 -0 -0 -0 -0 0 -0 -0 0 0 0 0 0
0 0 0 0 0 0 0 0 0 0 0 0 0 0 0 0 0 0 0 0 0 0 0 0 0 0 0 0 0 0 0 0 0 0 -0 -0 -0 0 0 0 0 0 0 0 0
0 0 0 0 0 0 0 0 0 0 0 0 0 0 0 0 0 0 -0 -0 0 0 0 0 0 0 0 0 0 0 0 0 0 0 -0 -0 -0 -0 -0 0 0 0 0 0 0
Wind_Speed_500mb
45 43 38 39 45 44 43 42 39 36 31 27 26 21 23 25 29 21 23 15 25 26 30 18 23 29 26 23 38 30 8 17 40 39 44 47 8 41 44 38 65 64 48 71 44
44 38 33 35 35 46 42 44 35 35 30 28 23 20 21 25 35 23 16 19 13 16 17 15 15 9 12 15 15 16 10 27 30 34 36 22 21 43 24 30 57 66 70 64 59
45 45 40 36 39 41 43 40 39 36 29 26 24 16 21 25 27 8 10 13 12 15 9 14 15 13 24 26 27 25 28 29 33 40 24 5 21 18 13 35 57 61 74 49 63
46 47 48 37 40 36 41 40 37 32 30 25 24 17 19 18 6 10 16 15 10 5 9 11 19 18 12 16 37 31 38 47 42 32 15 18 13 11 23 43 63 77 64 59 57
47 50 52 27 29 29 39 41 25 30 26 24 22 18 18 9 24 16 13 12 6 1 5 10 17 14 16 16 36 28 35 26 23 24 21 15 19 17 45 65 53 61 78 72 47
51 51 50 39 25 24 44 30 32 31 26 23 18 16 13 16 5 4 7 7 3 5 4 6 11 14 17 23 22 15 32 34 21 29 29 26 20 17 47 52 55 59 57 53 50
50 53 54 48 36 27 27 41 26 27 24 20 16 15 23 37 7 13 12 9 13 5 5 5 12 7 11 15 18 21 18 20 24 35 18 34 16 28 68 34 31 51 34 49 39
49 50 57 52 43 32 28 29 28 25 24 17 13 7 18 9 17 20 10 10 9 7 12 8 10 14 8 19 11 10 14 14 19 29 12 12 21 13 16 34 37 34 51 48 23
48 51 52 52 44 33 37 32 33 23 22 13 9 8 18 11 15 9 13 8 9 15 16 17 20 6 13 6 9 14 10 24 23 28 5 12 17 7 11 12 17 35 51 38 41
48 47 48 48 41 40 29 30 30 19 9 11 12 12 19 1 8 13 12 10 3 4 13 11 10 9 10 5 6 12 14 26 19 21 19 21 30 21 16 14 25 48 51 54 52
51 45 41 40 34 29 15 19 6 4 23 20 13 10 3 10 15 5 9 9 16 13 13 20 10 13 24 25 20 29 28 30 21 18 10 25 29 10 16 17 34 46 51 52 47
47 43 37 35 31 30 14 12 7 5 11 33 36 26 20 13 10 10 5 10 10 15 17 10 17 14 16 18 25 28 35 25 8 19 7 20 24 5 18 21 32 32 28 45 63
46 42 34 31 28 27 11 20 8 4 7 8 21 22 11 10 7 5 5 2 11 14 18 15 17 16 16 18 24 26 25 19 17 2 14 19 18 11 18 28 34 19 17 41 53
44 37 28 22 14 9 6 6 6 5 4 11 10 7 7 4 5 3 5 4 5 7 13 13 12 15 16 21 16 20 8 28 22 18 6 13 10 5 14 18 12 16 23 45 55
34 30 19 6 11 8 6 5 8 4 6 8 8 5 6 7 2 4 3 3 9 19 11 12 8 16 20 14 17 12 23 26 21 16 13 7 4 20 10 16 13 15 22 25 51
27 24 18 5 9 10 7 8 6 4 3 4 7 10 11 7 4 3 1 3 8 9 13 19 19 2 11 24 20 23 24 24 17 4 3 11 6 12 7 7 12 16 32 30 38
29 16 3 8 1 5 6 6 5 5 6 5 8 9 9 10 5 4 2 6 5 8 8 10 2 4 5 20 18 11 13 7 4 2 5 5 5 7 15 6 8 27 16 39 33
29 30 20 10 10 6 14 5 4 8 8 2 7 11 6 9 6 3 5 3 7 9 10 4 7 13 17 14 14 17 6 5 5 5 4 7 9 11 15 22 26 23 29 24 24
28 27 26 21 11 9 2 4 10 7 4 7 9 9 7 4 4 8 7 10 11 14 11 11 7 5 5 11 10 12 9 6 8 7 3 10 12 18 28 31 19 26 7 23 22
32 22 40 17 11 25 4 10 8 12 8 6 4 10 16 9 5 7 4 10 10 13 14 10 8 9 12 9 5 10 9 9 6 9 5 16 13 13 24 20 22 26 34 26 24
21 12 27 22 28 5 5 6 13 19 16 16 15 7 12 9 10 6 10 13 16 15 17 13 5 12 9 12 14 9 7 7 3 3 6 5 3 14 16 15 17 19 38 34 28
25 6 20 16 8 7 9 9 13 16 9 6 8 15 15 10 9 7 9 13 22 15 12 12 6 6 12 13 14 17 13 7 5 8 4 3 2 20 17 17 25 26 35 30 29
11 13 18 21 5 6 8 9 9 18 18 13 13 13 10 9 5 11 13 10 23 11 10 13 7 7 5 7 16 10 13 14 5 4 6 3 1 21 18 20 36 35 44 42 42
10 5 15 19 9 9 10 13 10 10 9 11 7 6 2 11 11 6 9 7 11 14 12 11 4 5 4 8 5 5 14 13 8 4 9 9 10 20 20 17 25 40 42 46 47
13 5 7 5 8 12 13 13 15 12 12 14 6 13 12 7 5 7 6 8 7 7 4 6 4 9 11 5 8 7 8 9 6 8 3 13 13 17 19 20 28 32 35 41 43
12 6 6 8 12 13 7 9 16 15 17 10 14 12 21 10 11 10 11 9 10 2 6 10 2 5 7 6 10 4 5 5 7 10 3 11 2 19 29 31 35 40 42 37 41
8 16 11 5 4 6 6 10 13 13 8 15 17 8 15 11 15 13 18 18 9 7 5 4 3 2 1 3 6 8 4 2 3 3 4 5 8 15 12 19 26 35 34 39 38
Wind_Direction_500mb
296 299 300 306 297 299 307 314 316 319 311 304 305 306 309 311 309 324 278 248 239 259 287 309 293 274 248 249 237 226 230 238 244 254 261 259 319 277 235 277 292 278 273 259 252
336 319 284 285 280 281 300 303 315 317 309 302 301 312 307 319 310 296 266 264 253 288 288 293 293 186 202 216 205 204 233 247 254 250 258 273 300 261 256 269 298 287 277 249 263
337 334 320 286 289 281 285 304 317 314 305 300 302 309 303 322 318 158 224 285 286 283 269 286 268 248 227 236 210 216 238 256 257 282 241 225 305 321 269 261 271 269 270 283 219
336 334 333 322 289 289 281 287 299 308 304 298 299 302 308 319 294 208 300 308 303 269 234 285 254 241 254 252 223 232 233 245 259 258 243 242 262 257 236 263 283 255 262 276 269
336 335 333 322 302 290 274 290 310 312 300 288 296 300 322 259 268 237 297 326 329 332 298 289 264 271 255 278 299 255 242 261 233 213 236 222 241 258 263 280 264 253 268 254 288
337 334 334 327 298 287 293 291 299 303 297 278 290 293 311 265 210 269 279 302 279 247 250 296 306 306 281 281 271 265 257 244 232 225 217 220 231 212 262 274 271 245 272 260 276
328 331 332 332 317 295 300 285 294 294 290 271 284 288 274 250 200 266 278 289 280 253 320 354 294 284 308 275 277 267 278 238 214 223 238 230 251 250 263 268 256 252 263 273 275
319 323 329 329 325 282 282 288 288 282 282 262 271 275 258 262 259 246 265 272 246 275 283 275 289 278 213 270 256 256 256 271 230 216 217 255 247 250 297 216 222 251 269 263 238
306 314 321 327 326 309 274 275 289 284 264 246 267 223 266 248 262 238 225 241 260 289 236 280 301 255 268 273 285 214 245 222 268 200 206 208 299 53 309 254 225 252 259 262 230
310 305 309 323 326 320 281 265 286 268 251 236 242 266 259 30 211 226 239 241 225 211 243 238 251 272 234 181 284 295 277 268 221 186 220 235 258 273 263 215 242 252 249 197 182
311 309 302 316 320 336 301 267 248 221 202 199 211 229 7 323 281 240 226 255 231 239 243 179 230 257 294 283 294 289 291 287 276 130 221 242 253 255 257 253 229 242 239 182 166
304 304 303 306 309 319 309 233 287 282 289 248 240 251 274 295 272 212 251 242 199 250 235 225 252 290 271 291 306 287 288 305 114 141 212 282 285 266 216 252 216 229 204 168 164
302 302 304 304 312 304 272 254 283 300 277 182 230 236 245 218 280 130 322 316 252 287 286 267 280 287 292 292 288 295 332 335 335 182 219 282 278 218 186 240 245 202 193 191 180
308 301 303 304 305 291 346 301 203 170 270 156 192 178 184 228 216 218 337 349 272 298 334 284 339 330 305 293 340 311 338 320 326 324 325 230 295 243 210 227 171 174 163 167 178
312 302 292 291 267 290 299 110 136 157 194 127 127 162 147 255 95 134 296 317 296 323 338 280 29 345 315 343 346 286 345 308 302 303 328 269 262 309 155 249 168 159 166 163 168
323 302 301 312 306 276 326 153 143 209 159 111 127 159 161 206 126 123 310 337 269 289 257 267 301 241 339 309 284 285 297 300 278 257 306 334 16 341 338 297 297 159 164 181 183
13 3 326 259 9 7 173 133 196 299 239 157 147 166 221 146 145 236 164 216 7 352 1 291 34 332 294 313 336 340 307 308 354 21 183 287 49 19 18 56 25 17 168 175 191
15 8 12 302 264 244 156 229 253 74 73 350 141 155 131 154 85 121 247 218 134 322 294 326 337 26 356 2 325 315 339 289 333 14 12 261 52 347 40 24 69 62 49 147 167
26 41 48 64 104 138 151 273 36 37 276 110 168 158 108 121 317 228 51 38 42 352 357 7 356 54 29 350 349 327 22 309 320 245 262 120 89 42 16 8 25 111 332 21 40
28 62 31 38 121 123 299 44 71 34 344 273 52 317 119 120 195 249 58 17 9 30 343 347 299 37 340 337 50 39 354 26 350 3 337 93 70 10 359 7 360 31 43 49 32
36 50 35 90 126 340 26 40 43 34 7 4 4 87 52 102 3 62 54 61 8 349 313 1 338 314 337 30 357 4 15 32 196 337 334 72 59 33 14 4 30 41 48 41 38
37 60 75 57 33 331 22 9 347 8 359 10 345 35 32 22 47 75 73 33 356 339 335 34 334 334 61 33 57 47 42 44 8 356 40 337 59 31 36 33 34 55 60 54 49
57 52 42 34 62 346 63 357 30 8 16 9 40 25 349 39 74 42 75 10 9 42 27 338 7 334 95 72 42 23 5 25 115 288 6 351 153 359 20 20 38 50 55 53 54
55 60 20 39 32 327 352 29 31 55 23 8 10 289 297 68 29 88 103 49 18 40 359 339 11 112 187 235 332 345 330 343 77 31 308 39 7 314 1 21 18 37 47 41 43
65 51 22 13 10 350 9 345 12 28 12 1 83 30 3 55 102 78 89 158 92 16 34 62 44 360 317 340 307 244 264 308 113 257 95 335 343 19 14 3 5 32 24 26 34
119 117 39 347 342 342 358 38 15 21 4 35 38 18 40 60 29 21 4 21 52 113 59 345 98 55 306 21 10 4 238 198 258 265 328 318 336 20 355 356 360 3 2 15 26
70 99 127 344 357 290 29 19 20 3 83 30 326 323 66 47 58 60 72 71 80 26 41 60 111 353 108 59 24 10 76 58 339 304 357 314 12 8 354 360 14 10 17 29 28
Wind_Speed_850mb
45 43 38 39 45 44 43 42 39 36 31 27 26 21 23 25 29 21 23 15 25 26 30 18 23 29 26 23 38 30 8 17 40 39 44 47 8 41 44 38 65 64 48 71 44
44 38 33 35 35 46 42 44 35 35 30 28 23 20 21 25 35 23 16 19 13 16 17 15 15 9 12 15 15 16 10 27 30 34 36 22 21 43 24 30 57 66 70 64 59
45 45 40 36 39 41 43 40 39 36 29 26 24 16 21 25 27 8 10 13 12 15 9 14 15 13 24 26 27 25 28 29 33 40 24 5 21 18 13 35 57 61 74 49 63
46 47 48 37 40 36 41 40 37 32 30 25 24 17 19 18 6 10 16 15 10 5 9 11 19 18 12 16 37 31 38 47 42 32 15 18 13 11 23 43 63 77 64 59 57
47 50 52 27 29 29 39 41 25 30 26 24 22 18 18 9 24 16 13 12 6 1 5 10 17 14 16 16 36 28 35 26 23 24 21 15 19 17 45 65 53 61 78 72 47
51 51 50 39 25 24 44 30 32 31 26 23 18 16 13 16 5 4 7 7 3 5 4 6 11 14 17 23 22 15 32 34 21 29 29 26 20 17 47 52 55 59 57 53 50
50 53 54 48 36 27 27 41 26 27 24 20 16 15 23 37 7 13 12 9 13 5 5 5 12 7 11 15 18 21 18 20 24 35 18 34 16 28 68 34 31 51 34 49 39
49 50 57 52 43 32 28 29 28 25 24 17 13 7 18 9 17 20 10 10 9 7 12 8 10 14 8 19 11 10 14 14 19 29 12 12 21 13 16 34 37 34 51 48 23
48 51 52 52 44 33 37 32 33 23 22 13 9 8 18 11 15 9 13 8 9 15 16 17 20 6 13 6 9 14 10 24 23 28 5 12 17 7 11 12 17 35 51 38 41
48 47 48 48 41 40 29 30 30 19 9 11 12 12 19 1 8 13 12 10 3 4 13 11 10 9 10 5 6 12 14 26 19 21 19 21 30 21 16 14 25 48 51 54 52
51 45 41 40 34 29 15 19 6 4 23 20 13 10 3 10 15 5 9 9 16 13 13 20 10 13 24 25 20 29 28 30 21 18 10 25 29 10 16 17 34 46 51 52 47
47 43 37 35 31 30 14 12 7 5 11 33 36 26 20 13 10 10 5 10 10 15 17 10 17 14 16 18 25 28 35 25 8 19 7 20 24 5 18 21 32 32 28 45 63
46 42 34 31 28 27 11 20 8 4 7 8 21 22 11 10 7 5 5 2 11 14 18 15 17 16 16 18 24 26 25 19 17 2 14 19 18 11 18 28 34 19 17 41 53
44 37 28 22 14 9 6 6 6 5 4 11 10 7 7 4 5 3 5 4 5 7 13 13 12 15 16 21 16 20 8 28 22 18 6 13 10 5 14 18 12 16 23 45 55
34 30 19 6 11 8 6 5 8 4 6 8 8 5 6 7 2 4 3 3 9 19 11 12 8 16 20 14 17 12 23 26 21 16 13 7 4 20 10 16 13 15 22 25 51
27 24 18 5 9 10 7 8 6 4 3 4 7 10 11 7 4 3 1 3 8 9 13 19 19 2 11 24 20 23 24 24 17 4 3 11 6 12 7 7 12 16 32 30 38
29 16 3 8 1 5 6 6 5 5 6 5 8 9 9 10 5 4 2 6 5 8 8 10 2 4 5 20 18 11 13 7 4 2 5 5 5 7 15 6 8 27 16 39 33
29 30 20 10 10 6 14 5 4 8 8 2 7 11 6 9 6 3 5 3 7 9 10 4 7 13 17 14 14 17 6 5 5 5 4 7 9 11 15 22 26 23 29 24 24
28 27 26 21 11 9 2 4 10 7 4 7 9 9 7 4 4 8 7 10 11 14 11 11 7 5 5 11 10 12 9 6 8 7 3 10 12 18 28 31 19 26 7 23 22
32 22 40 17 11 25 4 10 8 12 8 6 4 10 16 9 5 7 4 10 10 13 14 10 8 9 12 9 5 10 9 9 6 9 5 16 13 13 24 20 22 26 34 26 24
21 12 27 22 28 5 5 6 13 19 16 16 15 7 12 9 10 6 10 13 16 15 17 13 5 12 9 12 14 9 7 7 3 3 6 5 3 14 16 15 17 19 38 34 28
25 6 20 16 8 7 9 9 13 16 9 6 8 15 15 10 9 7 9 13 22 15 12 12 6 6 12 13 14 17 13 7 5 8 4 3 2 20 17 17 25 26 35 30 29
11 13 18 21 5 6 8 9 9 18 18 13 13 13 10 9 5 11 13 10 23 11 10 13 7 7 5 7 16 10 13 14 5 4 6 3 1 21 18 20 36 35 44 42 42
10 5 15 19 9 9 10 13 10 10 9 11 7 6 2 11 11 6 9 7 11 14 12 11 4 5 4 8 5 5 14 13 8 4 9 9 10 20 20 17 25 40 42 46 47
13 5 7 5 8 12 13 13 15 12 12 14 6 13 12 7 5 7 6 8 7 7 4 6 4 9 11 5 8 7 8 9 6 8 3 13 13 17 19 20 28 32 35 41 43
12 6 6 8 12 13 7 9 16 15 17 10 14 12 21 10 11 10 11 9 10 2 6 10 2 5 7 6 10 4 5 5 7 10 3 11 2 19 29 31 35 40 42 37 41
8 16 11 5 4 6 6 10 13 13 8 15 17 8 15 11 15 13 18 18 9 7 5 4 3 2 1 3 6 8 4 2 3 3 4 5 8 15 12 19 26 35 34 39 38
Wind_Direction_850mb
296 299 300 306 297 299 307 314 316 319 311 304 305 306 309 311 309 324 278 248 239 259 287 309 293 274 248 249 237 226 230 238 244 254 261 259 319 277 235 277 292 278 273 259 252
336 319 284 285 280 281 300 303 315 317 309 302 301 312 307 319 310 296 266 264 253 288 288 293 293 186 202 216 205 204 233 247 254 250 258 273 300 261 256 269 298 287 277 249 263
337 334 320 286 289 281 285 304 317 314 305 300 302 309 303 322 318 158 224 285 286 283 269 286 268 248 227 236 210 216 238 256 257 282 241 225 305 321 269 261 271 269 270 283 219
336 334 333 322 289 289 281 287 299 308 304 298 299 302 308 319 294 208 300 308 303 269 234 285 254 241 254 252 223 232 233 245 259 258 243 242 262 257 236 263 283 255 262 276 269
336 335 333 322 302 290 274 290 310 312 300 288 296 300 322 259 268 237 297 326 329 332 298 289 264 271 255 278 299 255 242 261 233 213 236 222 241 258 263 280 264 253 268 254 288
337 334 334 327 298 287 293 291 299 303 297 278 290 293 311 265 210 269 279 302 279 247 250 296 306 306 281 281 271 265 257 244 232 225 217 220 231 212 262 274 271 245 272 260 276
328 331 332 332 317 295 300 285 294 294 290 271 284 288 274 250 200 266 278 289 280 253 320 354 294 284 308 275 277 267 278 238 214 223 238 230 251 250 263 268 256 252 263 273 275
319 323 329 329 325 282 282 288 288 282 282 262 271 275 258 262 259 246 265 272 246 275 283 275 289 278 213 270 256 256 256 271 230 216 217 255 247 250 297 216 222 251 269 263 238
306 314 321 327 326 309 274 275 289 284 264 246 267 223 266 248 262 238 225 241 260 289 236 280 301 255 268 273 285 214 245 222 268 200 206 208 299 53 309 254 225 252 259 262 230
310 305 309 323 326 320 281 265 286 268 251 236 242 266 259 30 211 226 239 241 225 211 243 238 251 272 234 181 284 295 277 268 221 186 220 235 258 273 263 215 242 252 249 197 182
311 309 302 316 320 336 301 267 248 221 202 199 211 229 7 323 281 240 226 255 231 239 243 179 230 257 294 283 294 289 291 287 276 130 221 242 253 255 257 253 229 242 239 182 166
304 304 303 306 309 319 309 233 287 282 289 248 240 251 274 295 272 212 251 242 199 250 235 225 252 290 271 291 306 287 288 305 114 141 212 282 285 266 216 252 216 229 204 168 164
302 302 304 304 312 304 272 254 283 300 277 182 230 236 245 218 280 130 322 316 252 287 286 267 280 287 292 292 288 295 332 335 335 182 219 282 278 218 186 240 245 202 193 191 180
308 301 303 304 305 291 346 301 203 170 270 156 192 178 184 228 216 218 337 349 272 298 334 284 339 330 305 293 340 311 338 320 326 324 325 230 295 243 210 227 171 174 163 167 178
312 302 292 291 267 290 299 110 136 157 194 127 127 162 147 255 95 134 296 317 296 323 338 280 29 345 315 343 346 286 345 308 302 303 328 269 262 309 155 249 168 159 166 163 168
323 302 301 312 306 276 326 153 143 209 159 111 127 159 161 206 126 123 310 337 269 289 257 267 301 241 339 309 284 285 297 300 278 257 306 334 16 341 338 297 297 159 164 181 183
13 3 326 259 9 7 173 133 196 299 239 157 147 166 221 146 145 236 164 216 7 352 1 291 34 332 294 313 336 340 307 308 354 21 183 287 49 19 18 56 25 17 168 175 191
15 8 12 302 264 244 156 229 253 74 73 350 141 155 131 154 85 121 247 218 134 322 294 326 337 26 356 2 325 315 339 289 333 14 12 261 52 347 40 24 69 62 49 147 167
26 41 48 64 104 138 151 273 36 37 276 110 168 158 108 121 317 228 51 38 42 352 357 7 356 54 29 350 349 327 22 309 320 245 262 120 89 42 16 8 25 111 332 21 40
28 62 31 38 121 123 299 44 71 34 344 273 52 317 119 120 195 249 58 17 9 30 343 347 299 37 340 337 50 39 354 26 350 3 337 93 70 10 359 7 360 31 43 49 32
36 50 35 90 126 340 26 40 43 34 7 4 4 87 52 102 3 62 54 61 8 349 313 1 338 314 337 30 357 4 15 32 196 337 334 72 59 33 14 4 30 41 48 41 38
37 60 75 57 33 331 22 9 347 8 359 10 345 35 32 22 47 75 73 33 356 339 335 34 334 334 61 33 57 47 42 44 8 356 40 337 59 31 36 33 34 55 60 54 49
57 52 42 34 62 346 63 357 30 8 16 9 40 25 349 39 74 42 75 10 9 42 27 338 7 334 95 72 42 23 5 25 115 288 6 351 153 359 20 20 38 50 55 53 54
55 60 20 39 32 327 352 29 31 55 23 8 10 289 297 68 29 88 103 49 18 40 359 339 11 112 187 235 332 345 330 343 77 31 308 39 7 314 1 21 18 37 47 41 43
65 51 22 13 10 350 9 345 12 28 12 1 83 30 3 55 102 78 89 158 92 16 34 62 44 360 317 340 307 244 264 308 113 257 95 335 343 19 14 3 5 32 24 26 34
119 117 39 347 342 342 358 38 15 21 4 35 38 18 40 60 29 21 4 21 52 113 59 345 98 55 306 21 10 4 238 198 258 265 328 318 336 20 355 356 360 3 2 15 26
70 99 127 344 357 290 29 19 20 3 83 30 326 323 66 47 58 60 72 71 80 26 41 60 111 353 108 59 24 10 76 58 339 304 357 314 12 8 354 360 14 10 17 29 28